Weather History for KHLG - January, 2014

Change the Weather History Date:

Friday, January 24, 2014

  Actual Average Record
Temperature  
Mean Temperature 8 °F 29 °F  
Max Temperature 18 °F 36 °F 67 °F (1950)
Min Temperature -3 °F 22 °F -3 °F (2014)
Degree Days  
Heating Degree Days 57 36  
Month to date heating degree days 933 864  
Since 1 July heating degree days 3071 2989  
Cooling Degree Days 0    
Month to date cooling degree days 0  
Year to date cooling degree days 0  
Moisture  
Dew Point -3 °F    
Average Humidity 67    
Maximum Humidity 87    
Minimum Humidity 47    
Precipitation  
Precipitation T in 0.06 in 0.80 in (1992)
Month to date precipitation 1.39 2.22  
Sea Level Pressure  
Sea Level Pressure 30.36 in    
Wind  
Wind Speed 12 mph (SW)    
Max Wind Speed 32 mph    
Max Gust Speed 45 mph    
Visibility 8 miles    
Events Snow    
T = Trace of Precipitation, MM = Missing Value Source: NWS Daily Summary

Daily Weather History Graph

Daily Weather History Graph

Search for Another Location

Airport or City:

Trip Planner

Search our weather history database for the weather conditions in past years. The results will help you decide how hot, cold, wet, or windy it might be!

Date:

Astronomy

Jan. 24, 2014 Rise Set
Actual Time 7:38 AM EST 5:31 PM EST
Civil Twilight 7:08 AM EST 6:01 PM EST
Nautical Twilight 6:35 AM EST 6:33 PM EST
Astronomical Twilight 6:03 AM EST 7:06 PM EST
Moon 1:03 AM EST (1/24) 11:49 AM EST (1/24)
Length of Visible Light 10h 52m
Length of Day
9h 53m
Last Quarter, 45% of the Moon is Illuminated
Jan 24
Last Quarter
Jan 30
New
Feb 6
First Quarter
Feb 14
Full
Feb 22
Last Quarter

Hourly Weather History & Observations

Time (EST) Temp. Windchill Dew Point Humidity Pressure Visibility Wind Dir Wind Speed Gust Speed Precip Events Conditions
12:29 AM 1.4 °F -14.5 °F -4.0 °F 78% 30.44 in 10.0 mi West 10.4 mph - N/A   Overcast
12:53 AM 1.0 °F -12.9 °F -4.0 °F 79% 30.53 in 10.0 mi WSW 8.1 mph - N/A   Overcast
1:35 AM 1.4 °F -13.5 °F -4.0 °F 78% 30.43 in 10.0 mi WSW 9.2 mph - N/A   Overcast
1:53 AM 1.0 °F -11.7 °F -4.0 °F 79% 30.53 in 10.0 mi West 6.9 mph - N/A   Overcast
2:53 AM 1.0 °F -10.3 °F -2.9 °F 83% 30.55 in 7.0 mi West 5.8 mph - N/A   Overcast
3:53 AM 1.0 °F -10.3 °F -2.9 °F 83% 30.56 in 4.0 mi WSW 5.8 mph - 0.00 in Snow Light Snow
4:44 AM -0.4 °F -14.7 °F -5.8 °F 78% 30.46 in 10.0 mi SW 8.1 mph - 0.00 in   Mostly Cloudy
4:53 AM -0.9 °F -15.3 °F -5.1 °F 83% 30.56 in 10.0 mi SW 8.1 mph - 0.00 in   Overcast
5:53 AM -2.0 °F -15.4 °F -5.1 °F 87% 30.55 in 10.0 mi SSW 6.9 mph - N/A   Mostly Cloudy
6:11 AM -2.2 °F -16.8 °F -5.8 °F 85% 30.45 in 10.0 mi SSW 8.1 mph - N/A   Mostly Cloudy
6:22 AM -2.2 °F -15.6 °F -5.8 °F 85% 30.45 in 10.0 mi SSW 6.9 mph - N/A   Overcast
6:53 AM -2.9 °F -16.5 °F -7.1 °F 82% 30.55 in 10.0 mi South 6.9 mph - N/A   Overcast
7:53 AM -2.9 °F -17.7 °F -6.0 °F 87% 30.55 in 6.0 mi SSW 8.1 mph - N/A   Overcast
8:46 AM -0.4 °F -16.7 °F -5.8 °F 78% 30.43 in 1.8 mi SSW 10.4 mph 18.4 mph 0.00 in Snow Light Snow
8:53 AM -0.9 °F -19.1 °F -5.1 °F 83% 30.53 in 1.5 mi SSW 12.7 mph - 0.00 in Snow Light Snow
9:12 AM -0.4 °F -16.7 °F -4.0 °F 85% 30.43 in 1.2 mi SW 10.4 mph - 0.00 in Snow Light Snow
9:50 AM -0.4 °F -19.2 °F -5.8 °F 78% 30.41 in 2.0 mi SW 13.8 mph 25.3 mph 0.00 in Snow Light Snow
9:53 AM 1.0 °F -14.9 °F -5.1 °F 75% 30.52 in 2.5 mi SSW 10.4 mph 25.3 mph 0.00 in Snow Light Snow
10:10 AM 1.4 °F -16.1 °F -5.8 °F 72% 30.41 in 3.0 mi SW 12.7 mph 23.0 mph 0.00 in Snow Light Snow
10:53 AM 3.0 °F -10.5 °F -2.9 °F 76% 30.50 in 3.0 mi SW 8.1 mph 18.4 mph 0.00 in Snow Light Snow
11:53 AM 5.0 °F -13.6 °F -2.0 °F 73% 30.45 in 5.0 mi SSW 16.1 mph 24.2 mph 0.00 in   Haze
12:53 PM 8.1 °F -7.0 °F -0.0 °F 70% 30.39 in 9.0 mi SSW 11.5 mph 25.3 mph 0.00 in   Overcast
1:53 PM 10.0 °F -6.5 °F 1.0 °F 67% 30.35 in 10.0 mi South 15.0 mph 23.0 mph 0.00 in   Scattered Clouds
2:53 PM 10.9 °F -6.5 °F -0.0 °F 61% 30.28 in 10.0 mi SSW 17.3 mph 27.6 mph N/A   Clear
3:53 PM 12.0 °F -3.4 °F -0.9 °F 56% 30.24 in 10.0 mi SSW 13.8 mph 20.7 mph N/A   Mostly Cloudy
4:53 PM 12.9 °F -0.9 °F -2.0 °F 51% 30.20 in 10.0 mi SSW 11.5 mph 27.6 mph N/A   Clear
5:53 PM 12.0 °F -4.0 °F -2.0 °F 53% 30.17 in 10.0 mi SSW 15.0 mph - N/A   Partly Cloudy
6:53 PM 12.0 °F -2.7 °F -2.0 °F 53% 30.10 in 10.0 mi SSW 12.7 mph 24.2 mph N/A   Clear
7:53 PM 12.9 °F -5.3 °F -2.0 °F 51% 30.06 in 10.0 mi SW 20.7 mph 29.9 mph N/A   Clear
8:53 PM 14.0 °F -4.7 °F -2.0 °F 49% 30.00 in 10.0 mi SSW 23.0 mph 34.5 mph N/A   Clear
9:53 PM 16.0 °F -1.3 °F -0.9 °F 47% 29.94 in 10.0 mi SSW 20.7 mph 36.8 mph N/A   Clear
10:53 PM 17.1 °F 2.0 °F -0.9 °F 45% 29.93 in 10.0 mi SW 16.1 mph 25.3 mph N/A   Clear
11:53 PM 17.1 °F 2.5 °F -0.9 °F 45% 29.89 in 10.0 mi SW 15.0 mph 23.0 mph N/A   Clear